NOAA 16 DEB, 42349

Orbit data source: Space-Track

NOAA 16 DEB, 42349 is space debris in SSO originally from a launch on Thu, 21 Sep 2000 UTC launched from the Air Force Western Test Range (AFWTR). Debris objects in space refer to the collection of defunct objects orbiting the Earth. Examples of debris include non-operational satellites, rocket bodies, and fragments generated from explosions, collisions, or faulty payload assembly.

Loading next visibility...
Identifier
42349, 2000-055QR
Orbit
SSO
Country
Flag of USUS
Related business
Manufacturer
Unknown
Mission
Spacecraft
Bus & Motor
Unknown
Mass
Unknown
Launch date (UTC)
2000-09-21 (25 years ago)
Launch vehicle
Unknown
Launch site
Air Force Western Test Range (AFWTR)
Object type
Payload
Rocket body
Debris
Shape & HBR
Unknown shape, 0.1 m
Radar Cross Section
Small (<0.1 m²)

Expand to show TLE details & history
Last TLE update: 2 days ago

TLE from 2 days ago
0 NOAA 16 DEB
1 42349U 00055QR  25298.10080011  .00004477  00000-0  19841-2 0  9996
2 42349  98.6817 356.2352 0009253  77.4321 282.7892 14.23552284493743
Epoch: 2025-10-25T02:25Z
TLE epoch observation values (Epoch: 2025-10-25T02:25:09.129Z)
Latitude
-0.00002°
Longitude
-73.78903°
Altitude
814.817 km
Speed
7.447 km/s
True Right ascension
23h 44m 56s
True Declination
0° 00' 00"
Sunlit
Object was in full shadow at epoch
Visualization orbit readout
Latitude
Unknown
Longitude
Unknown
Altitude
Unknown
Speed
Unknown
Apparent Right ascension
Unknown
Apparent Declination
Unknown
Sunlit
N/A
Visualization observer readout
Local Sidereal Time
01:14:59
Azimuth
Unknown
Elevation
Unknown
Doppler factor
Unknown
Orbital elements
Apogee altitude
817.168 km
Perigee altitude
803.865 km
Semi-major axis
7,188.654 km
Eccentricity
0.00093
Inclination
98.6817°
RAAN
356.2352°
Arg. of periapsis
77.4321°
True anomaly
282.68577°
Mean anomaly
282.7892°
Eccentric anomaly
282.73749°
Mean motion
3.561 °/min
Orbital period
101.1 mins
BSTAR
0.0019841
Loading maneuver chart data...
Computing Atmospheric mass density...
Loading historical data...
Loading historical data...
Loading historical data...
Loading historical data...
Loading historical data...
Loading historical data...
Loading historical data...

Documentation

Showing up to 5 results
|